TimeEST,TemperatureF,Dew PointF,Humidity,Sea Level PressureIn,VisibilityMPH,Wind Direction,Wind SpeedMPH,Gust SpeedMPH,PrecipitationIn,Events,Conditions,WindDirDegrees,DateUTC
12:54 AM,26.1,23.0,88,29.95,-9999.0,North,-9999.0,-,N/A,,Unknown,0,2013-01-07 05:54:00
1:54 AM,26.1,24.1,92,29.99,-9999.0,North,-9999.0,-,0.01,,Unknown,0,2013-01-07 06:54:00
2:54 AM,26.1,24.1,92,30.02,-9999.0,North,-9999.0,-,N/A,,Unknown,0,2013-01-07 07:54:00
3:54 AM,25.0,21.0,85,30.07,-9999.0,North,-9999.0,-,N/A,,Unknown,0,2013-01-07 08:54:00
4:54 AM,21.9,17.1,82,30.12,-9999.0,North,-9999.0,-,N/A,,Unknown,0,2013-01-07 09:54:00
5:54 AM,19.9,15.1,81,30.17,-9999.0,North,-9999.0,-,N/A,,Unknown,0,2013-01-07 10:54:00
6:54 AM,18.0,14.0,84,30.22,-9999.0,North,-9999.0,-,N/A,,Unknown,0,2013-01-07 11:54:00
7:54 AM,17.1,12.0,81,30.27,-9999.0,North,-9999.0,-,N/A,,Unknown,0,2013-01-07 12:54:00
8:54 AM,18.0,12.0,78,30.32,-9999.0,North,-9999.0,-,N/A,,Unknown,0,2013-01-07 13:54:00
9:54 AM,18.0,10.9,74,30.35,-9999.0,North,-9999.0,-,N/A,,Unknown,0,2013-01-07 14:54:00
10:54 AM,19.9,10.0,65,30.35,-9999.0,North,-9999.0,-,N/A,,Unknown,0,2013-01-07 15:54:00
11:54 AM,21.0,10.0,63,30.34,-9999.0,North,-9999.0,-,N/A,,Unknown,0,2013-01-07 16:54:00
12:54 PM,21.0,9.0,60,30.34,-9999.0,North,-9999.0,-,N/A,,Unknown,0,2013-01-07 17:54:00
1:54 PM,21.9,10.0,60,30.35,-9999.0,North,-9999.0,-,N/A,,Unknown,0,2013-01-07 18:54:00
2:54 PM,21.9,9.0,58,30.35,-9999.0,North,-9999.0,-,N/A,,Unknown,0,2013-01-07 19:54:00
3:54 PM,21.9,9.0,58,30.36,-9999.0,North,-9999.0,-,N/A,,Unknown,0,2013-01-07 20:54:00
4:54 PM,18.0,10.0,71,30.38,-9999.0,North,-9999.0,-,N/A,,Unknown,0,2013-01-07 21:54:00
5:54 PM,15.1,9.0,77,30.38,-9999.0,North,-9999.0,-,N/A,,Unknown,0,2013-01-07 22:54:00
6:54 PM,10.9,7.0,84,30.38,-9999.0,North,-9999.0,-,N/A,,Unknown,0,2013-01-07 23:54:00
7:54 PM,8.1,5.0,87,30.36,-9999.0,North,-9999.0,-,N/A,,Unknown,0,2013-01-08 00:54:00
8:54 PM,6.1,3.0,87,30.35,-9999.0,North,-9999.0,-,N/A,,Unknown,0,2013-01-08 01:54:00
9:54 PM,3.9,-0.0,84,30.34,-9999.0,North,-9999.0,-,N/A,,Unknown,0,2013-01-08 02:54:00
10:54 PM,1.9,-2.0,83,30.34,-9999.0,North,-9999.0,-,N/A,,Unknown,0,2013-01-08 03:54:00
11:54 PM,1.0,-2.0,87,30.31,-9999.0,North,-9999.0,-,N/A,,Unknown,0,2013-01-08 04:54:00